ATLAS 5 CENTAUR DEB, 44003

Orbit data source: Space-Track

ATLAS 5 CENTAUR DEB, 44003 is space debris in HEO originally from a launch on Wed, 17 Sep 2014 UTC launched from the Air Force Eastern Test Range (AFETR). Debris objects in space refer to the collection of defunct objects orbiting the Earth. Examples of debris include non-operational satellites, rocket bodies, and fragments generated from explosions, collisions, or faulty payload assembly.

Loading next visibility...
Identifier
44003, 2014-055BJ
Orbit
HEO
Country
Flag of USUS
Related business
Flag of USUnited Launch Alliance/Lockheed Martin (US)
Manufacturer
Unknown
Mission
Spacecraft
Bus & Motor
Unknown
Mass
Unknown
Launch date (UTC)
2014-09-17 (12 years ago)
Launch vehicle
Unknown
Launch site
Air Force Eastern Test Range (AFETR)
Object type
Payload
Rocket body
Debris
Shape & HBR
Unknown shape, 1.1 m
Radar Cross Section
Medium (>0.1 m² and <1 m²)

Expand to show TLE details & history
Last TLE update: 2 days ago

TLE from 2 days ago
0 ATLAS 5 CENTAUR DEB
1 44003U 14055BJ  26171.30052726 -.00000034  00000-0  00000+0 0  9995
2 44003  19.4221 177.1037 4620717 108.9715 305.4804  1.81340503 51517
Epoch: 2026-06-20T07:12Z
TLE epoch observation values (Epoch: 2026-06-20T07:12:45.555Z)
Latitude
0.00001°
Longitude
160.4102°
Altitude
19,878.415 km
Speed
4.041 km/s
True Right ascension
11h 48m 28s
True Declination
0° 00' 00"
Sunlit
Object was in daylight at epoch
Visualization orbit readout
Latitude
Unknown
Longitude
Unknown
Altitude
Unknown
Speed
Unknown
Apparent Right ascension
Unknown
Apparent Declination
Unknown
Sunlit
N/A
Visualization observer readout
Local Sidereal Time
21:36:27
Azimuth
Unknown
Elevation
Unknown
Doppler factor
Unknown
Orbital elements
Apogee altitude
35,155.751 km
Perigee altitude
8,903.093 km
Semi-major axis
28,407.559 km
Eccentricity
0.46207
Inclination
19.4221°
RAAN
177.1037°
Arg. of periapsis
108.9715°
True anomaly
251.10726°
Mean anomaly
305.4804°
Eccentric anomaly
279.35798°
Mean motion
0.45331 °/min
Orbital period
794.16 mins
BSTAR
0
Loading maneuver chart data...
Computing Atmospheric mass density...

Documentation

Showing up to 5 results
|